Home   Weather   Las Palmas   Past weeks

Flag for Spain Past Weather in Las Palmas, Canary Islands, Spain — Yesterday and Last 2 Weeks

Now
73 °F

Partly sunny.


Feels Like: 75 °F
Forecast: N/A
Wind: 9 mph from Northeast

Location: Las Palmas De Gran Canaria / Gando

Current Time: Dec 5, 2016 at 2:56:36 pm

Latest Report: Dec 5, 2016 at 2:30 pm


Visibility: N/A

Pressure: 30.09 "Hg

Humidity: 74%

Dew Point: 64 °F

Location of Las PalmasLocation

Past Weather in Las Palmas — Graph

°F

Las Palmas Temperature Yesterday

Maximum temperature yesterday: 77 °F (at 12:30 pm)
Minimum temperature yesterday: 66 °F (at 8:30 am)
Average temperature yesterday: 71 °F

High & Low Weather Summary for the Past Weeks

 TemperatureHumidityPressure
High81 °F (Dec 2, 11:30 am)94% (Dec 2, 3:00 am)30.15 "Hg (Dec 2, 3:00 am)
Low59 °F (Nov 25, 6:00 am)40% (Nov 23, 2:30 pm)29.77 "Hg (Dec 3, 6:00 am)
Average68 °F66%29.99 "Hg
* Reported Nov 20 1:00 pm — Dec 5 1:30 pm, Las Palmas, Weather by CustomWeather, © 2016

Note: Actual official high and low records may vary slightly from our data, if they occured in-between our weather recording intervals... More about our weather records

Advertising

Las Palmas Weather History for the Previous 24 Hours

Scroll right to see more
 ConditionsComfort  
Time TempWeatherWind HumidityBarometerVisibility
1:30 pm
Mon, Dec 5
73 °FScattered clouds.5 mph69%30.12 "HgN/A
1:00 pm73 °FPassing clouds.5 mph69%30.12 "HgN/A
12:30 pm73 °FPassing clouds.5 mph69%30.12 "HgN/A
12:00 pm73 °FPassing clouds.3 mph65%30.15 "HgN/A
11:30 am72 °FPassing clouds.3 mph69%30.15 "HgN/A
11:00 am72 °FPassing clouds.3 mph69%30.15 "HgN/A
10:30 am72 °FPassing clouds.2 mph69%30.15 "HgN/A
10:00 am72 °FPassing clouds.2 mph65%30.15 "HgN/A
9:30 am72 °FPassing clouds.No wind65%30.12 "HgN/A
9:00 am70 °FPassing clouds.No wind69%30.12 "HgN/A
8:30 am66 °FPassing clouds.No wind73%30.12 "HgN/A
8:00 am64 °FPassing clouds.5 mph78%30.12 "HgN/A
7:30 am64 °FPassing clouds.3 mph78%30.09 "HgN/A
7:00 am64 °FPassing clouds.3 mph78%30.09 "HgN/A
6:30 am64 °FPassing clouds.3 mph78%30.07 "HgN/A
6:00 am64 °FPassing clouds.2 mph78%30.07 "HgN/A
5:30 am64 °FPassing clouds.3 mph73%30.07 "HgN/A
5:00 am63 °FPassing clouds.3 mph77%30.07 "HgN/A
4:30 am64 °FPassing clouds.2 mph78%30.07 "HgN/A
4:00 am64 °FPassing clouds.3 mph78%30.07 "HgN/A
3:30 am64 °FPassing clouds.2 mph83%30.07 "HgN/A
3:00 am64 °FPassing clouds.1 mph78%30.07 "HgN/A
2:30 am64 °FPassing clouds.2 mph78%30.07 "HgN/A
2:00 am66 °FPassing clouds.3 mph78%30.07 "HgN/A
1:30 am66 °FPassing clouds.1 mph78%30.07 "HgN/A
1:00 am66 °FPassing clouds.2 mph73%30.07 "HgN/A
12:30 am66 °FPassing clouds.1 mph73%30.07 "HgN/A
12:00 am64 °FPassing clouds.3 mph78%30.07 "HgN/A
11:30 pm
Sun, Dec 4
68 °FPassing clouds.3 mph69%30.07 "HgN/A
11:00 pm68 °FPassing clouds.5 mph69%30.07 "HgN/A
10:30 pm66 °FPassing clouds.5 mph73%30.07 "HgN/A
10:00 pm68 °FPassing clouds.5 mph64%30.04 "HgN/A
9:30 pm70 °FPassing clouds.8 mph64%30.04 "HgN/A
9:00 pm70 °FPassing clouds.5 mph64%30.04 "HgN/A
8:30 pm70 °FPassing clouds.7 mph64%30.04 "HgN/A
8:00 pm70 °FPassing clouds.10 mph64%30.01 "HgN/A
7:30 pm70 °FPassing clouds.12 mph64%29.98 "HgN/A
7:00 pm70 °FPassing clouds.13 mph64%29.98 "HgN/A
6:30 pm72 °FPassing clouds.14 mph61%29.98 "HgN/A
6:00 pm72 °FPassing clouds.15 mph65%29.95 "HgN/A
5:30 pm73 °FPassing clouds.16 mph57%29.95 "HgN/A
5:00 pm73 °FPassing clouds.20 mph57%29.95 "HgN/A
4:30 pm73 °FPassing clouds.17 mph57%29.92 "HgN/A
4:00 pm75 °FPassing clouds.18 mph57%29.92 "HgN/A
3:30 pm77 °FPassing clouds.18 mph51%29.92 "HgN/A
3:00 pm75 °FPassing clouds.22 mph57%29.92 "HgN/A
2:30 pm77 °FPassing clouds.14 mph42%29.92 "HgN/A
2:00 pm77 °FPassing clouds.18 mph44%29.92 "HgN/A
Weather by CustomWeather, © 2016

See weather overviewHow to use our weather pages